SCP
-0 -0 -0 -0 -0 -0 -0 -0 -0 -0 -0 -0 0 0 0 0 -0 -0 -0 0 0 -0 0 0 0 -0 -0 0 0 0 0 0 -0 -0 -0 -0 0 0 0 0 0 0 0 0 0 0 0
-0 -0 -0 -0 -0 -0 -0 -0 -0 -0 -0 -0 0 0 0 0 -0 -0 0 0 0 0 0 0 0 -0 0 0 0 0 0 0 0 0 0 -0 0 0 0 0 0 0 0 0 0 0 0
-0 -0 -0 -0 -0 -0 -0 -0 -0 -0 -0 0 0 0 0 0 -0 -0 0 0 0 0 0 0 0 0 0 0 0 0 0 0 0 -0 -0 0 0 0 0 0 0 0 0 0 0 0 0
-0 -0 -0 -0 -0 -0 -0 -0 -0 -0 -0 -0 0 0 0 0 -0 0 0 0 0 0 0 0 0 0 0 0 0 0 0 0 0 0 0 -0 0 0 0 0 0 0 0 0 0 0 -0
-0 -0 -0 -0 0 0 -0 -0 -0 -0 -0 0 0 0 0 0 -0 0 0 0 0 0 0 0 0 0 0 0 0 0 0 -0 0 0 0 0 0 0 0 0 0 0 0 0 0 0 0
-0 -0 -0 0 0 0 0 0 0 0 -0 0 0 0 0 -0 -0 0 0 0 0 0 0 0 0 0 0 0 0 0 0 0 -0 -0 0 0 0 0 0 0 -0 -0 -0 0 0 -0 0
-0 -0 -0 -0 -0 0 0 0 0 0 0 0 0 0 0 -0 0 0 0 0 0 0 0 0 0 -0 0 0 0 0 0 0 0 0 0 0 0 0 0 -0 0 -0 -0 -0 -0 0 0
-0 -0 0 -0 -0 0 0 0 0 0 0 0 0 0 -0 -0 0 0 0 0 0 0 0 -0 -0 0 0 0 0 0 0 0 -0 -0 -0 0 0 0 0 0 -0 -0 -0 -0 -0 -0 -0
-0 -0 0 -0 0 0 0 0 0 0 0 0 0 0 -0 -0 -0 0 0 0 0 0 0 0 0 0 0 0 0 0 0 -0 -0 -0 -0 0 0 0 0 0 0 0 -0 -0 -0 -0 -0
0 0 0 0 0 0 0 0 0 0 0 0 0 0 -0 -0 0 0 0 0 0 0 0 0 0 0 0 0 0 0 0 -0 -0 0 -0 0 -0 0 0 0 0 0 0 -0 0 -0 -0
0 0 0 0 0 0 0 0 0 0 0 0 0 -0 -0 0 0 0 0 0 0 0 -0 0 0 0 0 0 0 0 0 0 -0 0 0 -0 -0 -0 0 0 -0 0 0 0 -0 0 0
-0 0 0 0 0 0 0 0 0 0 0 0 0 -0 -0 0 0 0 0 0 0 -0 0 0 0 0 0 0 0 -0 0 0 0 0 0 0 0 0 0 0 -0 0 0 0 0 0 0
0 0 0 0 0 0 0 0 0 0 0 0 0 -0 0 0 0 0 0 -0 -0 0 0 0 0 0 0 0 -0 0 0 -0 0 0 0 0 0 0 0 0 0 0 0 0 0 0 0
0 0 0 0 0 0 0 0 0 0 0 0 0 -0 0 0 0 0 0 -0 0 0 0 0 0 0 0 0 0 -0 0 0 0 0 0 0 0 0 0 0 0 0 0 0 0 0 0
0 0 0 0 0 0 0 0 0 0 0 0 0 0 0 0 0 0 -0 0 0 0 0 0 0 0 0 0 0 0 -0 0 0 0 0 0 0 0 0 0 0 0 0 0 0 0 0
0 0 0 0 0 0 0 0 0 0 0 0 0 0 0 0 0 0 0 0 0 0 0 0 0 0 0 0 0 0 -0 0 0 0 0 0 0 0 0 0 0 0 0 0 0 0 0
0 0 0 0 0 0 0 0 0 0 0 0 0 0 0 0 0 0 0 0 0 0 0 0 0 0 0 0 0 0 0 0 0 0 0 0 0 0 0 0 -0 0 0 0 0 0 0
0 0 0 0 0 0 0 0 0 0 0 0 0 0 0 0 -0 0 0 0 0 0 0 0 0 0 0 0 0 0 0 0 0 0 0 0 0 0 -0 -0 -0 0 -0 0 0 0 -0
0 0 0 0 0 0 0 0 0 0 0 0 0 0 0 0 0 0 0 0 0 0 0 0 0 0 0 0 0 0 0 0 -0 0 0 0 0 0 0 0 0 0 -0 -0 -0 -0 -0
0 0 0 0 0 0 0 0 0 0 0 0 0 0 0 0 0 0 0 0 0 0 0 0 0 0 0 0 0 0 -0 0 0 0 0 0 0 0 -0 -0 -0 0 0 -0 0 0 0
0 0 0 0 0 0 0 0 0 0 0 0 0 0 0 0 0 0 0 0 0 0 0 0 0 0 0 0 -0 0 0 -0 0 0 0 0 0 -0 -0 -0 -0 -0 -0 -0 -0 0 -0
0 0 0 0 0 0 0 0 0 0 0 0 0 0 0 0 0 0 0 0 0 0 0 0 0 0 0 0 0 -0 -0 0 0 0 0 0 0 -0 -0 -0 -0 0 0 0 -0 -0 -0
0 0 0 0 0 0 0 0 0 0 0 0 0 0 0 0 0 0 0 0 0 0 0 0 0 0 0 0 0 0 0 0 0 0 0 -0 -0 0 0 0 0 0 0 0 -0 -0 -0
0 0 0 0 0 0 0 0 0 0 0 0 0 0 0 0 0 0 0 0 0 0 0 0 0 0 0 0 -0 0 0 0 0 0 0 0 0 -0 0 0 0 0 0 -0 -0 -0 0
0 0 0 0 0 0 0 0 0 0 0 0 0 0 0 0 0 0 0 0 0 0 0 0 0 0 0 0 0 -0 0 0 0 0 0 -0 -0 -0 0 0 0 0 -0 0 0 0 0
0 0 0 0 0 0 0 0 0 0 0 0 0 0 0 0 0 0 0 0 0 0 0 0 0 0 0 0 0 -0 0 -0 0 0 0 -0 0 -0 -0 0 0 -0 0 -0 0 0 -0
0 0 0 0 0 0 0 0 0 0 0 0 0 0 0 0 0 0 0 0 0 0 0 0 0 0 0 0 0 -0 -0 0 0 0 0 0 0 0 -0 0 0 -0 -0 -0 0 0 0
0 0 0 0 0 0 0 0 0 0 0 0 0 0 0 0 0 0 0 0 0 0 0 0 0 0 0 0 0 -0 0 0 0 0 0 -0 -0 -0 0 0 -0 0 -0 0 0 0 0
0 0 0 0 0 0 0 0 0 0 0 0 0 0 0 0 0 0 0 0 -0 0 0 0 0 0 0 0 0 -0 -0 0 0 0 0 -0 0 0 -0 0 0 0 0 0 0 0 0
Wind_Speed_500mb
51 50 50 49 49 49 49 48 50 52 54 55 51 41 40 34 27 25 28 31 30 29 25 20 20 15 3 12 16 3 5 5 9 11 12 15 20 25 29 27 21 30 33 45 48 51 64
52 53 54 54 53 53 53 54 56 57 57 56 52 40 39 32 26 26 28 33 31 30 20 21 17 5 5 17 1 4 4 10 11 13 14 14 15 18 25 31 30 35 37 35 35 42 54
52 53 55 57 58 58 58 59 59 60 60 57 52 41 33 28 26 27 29 35 33 36 15 25 9 3 11 7 3 8 14 17 16 17 22 18 19 22 24 25 26 29 36 39 42 48 46
53 53 55 58 60 61 63 64 64 63 63 60 53 44 29 25 25 27 31 37 33 37 15 34 4 3 17 8 5 11 17 23 27 26 26 25 24 31 35 36 38 37 38 37 39 47 47
53 54 55 57 60 62 65 67 69 67 69 64 55 45 30 23 25 26 33 38 27 27 20 23 4 8 21 8 11 14 27 24 22 24 26 27 27 38 36 33 31 33 34 41 44 41 29
54 55 57 57 61 66 68 70 73 73 72 65 59 48 34 19 26 25 34 31 36 12 18 15 12 14 15 14 19 26 30 29 29 26 30 31 36 30 32 28 30 38 36 35 29 31 29
55 56 56 56 61 66 70 72 75 77 74 70 60 48 30 15 24 22 31 28 21 7 20 25 30 36 30 18 25 33 27 23 23 29 29 39 28 29 44 39 38 42 47 49 45 41 24
53 54 56 57 62 67 70 74 78 79 77 71 61 46 25 15 24 21 21 22 21 21 30 18 11 17 24 22 35 43 21 17 28 32 31 34 40 47 44 44 44 45 50 51 51 42 40
52 54 54 57 62 67 70 76 80 82 80 74 63 36 19 20 14 20 15 16 23 19 17 2 10 17 13 16 38 37 8 21 33 40 42 40 45 42 37 42 43 42 47 48 51 47 41
54 52 53 56 61 66 72 76 81 85 82 73 61 26 18 19 12 20 11 26 26 15 11 8 2 4 19 33 32 29 31 37 33 40 40 37 42 35 40 48 43 50 43 49 34 39 34
53 52 52 56 63 68 72 75 80 86 85 75 57 24 17 19 17 22 26 29 13 5 8 15 10 18 32 38 40 22 11 26 39 44 33 50 50 49 42 42 40 35 28 32 38 40 38
54 54 53 56 62 68 72 74 78 84 88 79 53 22 18 18 16 26 28 22 4 14 9 18 20 36 34 27 25 40 29 31 39 41 42 53 62 46 52 47 46 26 31 34 35 28 30
54 56 56 58 61 67 71 73 76 84 89 87 48 17 19 19 27 31 24 16 13 10 27 20 42 41 35 34 44 27 28 33 21 12 32 33 45 46 45 40 38 32 21 11 15 20 38
55 60 62 62 61 67 72 72 74 81 87 86 47 14 17 18 35 24 19 24 18 25 25 36 31 43 22 42 35 43 39 33 29 23 16 22 23 10 18 28 23 23 24 13 17 28 36
56 60 63 66 67 69 71 71 75 77 84 86 37 16 10 30 30 19 27 12 16 26 30 30 40 29 29 40 39 44 43 28 11 10 7 14 16 9 30 36 26 4 20 34 31 40 34
55 57 60 62 67 68 71 73 75 76 82 85 38 11 9 35 23 14 15 2 14 15 27 28 35 25 48 44 40 45 28 18 21 12 21 5 25 31 37 19 34 24 5 7 8 12 30
55 57 59 60 63 67 70 70 76 77 81 81 29 18 15 34 19 22 10 13 25 32 28 18 32 43 38 31 38 37 15 36 14 18 22 11 13 28 30 21 32 10 8 19 23 21 19
55 56 57 59 61 63 66 69 69 80 79 78 28 12 24 33 23 28 17 18 17 26 35 31 24 31 32 37 27 16 20 25 14 17 8 13 9 16 43 47 41 32 38 35 20 27 27
54 53 53 55 57 60 61 66 64 70 76 74 33 21 14 32 13 16 26 32 12 23 27 28 27 32 37 35 16 21 38 37 52 12 6 4 8 13 22 5 20 7 22 40 34 31 34
54 51 51 53 57 58 59 59 59 62 68 44 25 12 23 17 1 20 26 23 28 24 26 22 34 36 29 38 34 26 48 17 36 37 32 15 11 23 26 39 24 9 26 43 33 22 30
58 55 51 53 55 58 58 57 52 57 58 29 20 15 10 14 27 33 31 26 31 34 20 39 32 42 47 37 50 33 42 58 46 9 7 5 13 30 39 46 48 49 38 38 28 35 31
59 56 56 53 55 56 56 55 50 52 55 20 22 18 25 39 31 28 21 25 32 33 39 34 34 45 47 37 33 56 52 40 10 7 6 6 10 29 47 38 32 22 9 27 26 28 26
57 58 54 55 57 57 56 54 51 50 47 13 23 21 22 31 34 27 23 30 41 40 22 42 44 43 46 48 68 78 63 57 12 5 4 7 8 10 15 21 19 6 10 24 25 19 6
61 61 58 54 57 54 55 51 49 46 39 22 20 18 25 21 27 30 34 36 39 41 41 47 37 38 50 73 73 65 15 19 12 16 17 13 21 11 19 34 5 15 21 26 20 30 16
66 65 59 56 55 50 50 49 47 43 42 33 23 11 14 15 41 30 39 39 41 40 35 37 39 48 44 54 32 21 8 10 12 6 19 18 11 10 11 26 2 18 22 17 9 13 17
60 60 59 56 54 52 51 48 46 44 47 40 29 15 11 20 16 39 36 35 28 27 25 38 36 44 34 20 19 13 9 25 11 19 17 31 19 12 14 16 9 19 45 60 1 6 48
59 58 57 57 54 50 44 48 48 46 46 43 31 22 17 19 30 29 32 29 30 26 19 41 50 29 27 23 13 16 14 22 13 18 21 20 16 17 19 8 9 34 50 68 9 17 54
51 51 51 51 50 48 44 46 49 54 45 42 33 30 21 18 54 39 33 42 38 33 21 33 26 16 11 15 10 14 10 11 12 23 7 9 14 12 14 10 10 61 32 18 27 59 40
45 45 46 46 44 45 48 47 51 51 46 41 39 28 18 30 47 63 51 46 52 41 35 16 26 26 11 6 6 8 16 6 18 8 9 4 9 11 10 9 22 43 27 56 37 30 31
Wind_Direction_500mb
44 41 38 34 33 30 25 20 15 11 7 5 5 7 4 5 10 12 5 356 351 344 345 346 340 336 322 240 65 298 39 31 346 300 282 288 279 272 265 271 272 266 271 273 269 262 269
44 41 39 36 32 28 23 18 14 10 7 5 4 1 1 4 7 5 2 355 350 350 357 348 345 333 346 255 111 223 248 262 286 275 274 283 290 316 294 274 274 277 285 283 277 278 263
42 39 37 34 30 26 21 16 10 7 5 2 2 358 356 356 358 359 356 352 343 345 355 353 332 189 273 352 202 278 275 275 274 269 272 266 276 284 294 284 268 277 269 270 257 252 252
38 36 33 30 26 23 19 14 9 3 2 358 356 354 344 344 346 349 348 346 342 342 301 347 270 198 279 212 281 301 303 285 270 261 260 264 271 274 271 278 277 266 263 267 263 239 237
35 31 28 24 22 19 14 12 8 3 358 355 352 349 335 334 334 337 342 342 338 344 357 326 67 234 277 238 267 296 309 287 290 259 258 260 262 268 270 256 260 244 254 257 268 231 217
30 26 22 22 20 16 11 9 6 2 357 354 349 347 336 321 334 327 338 338 330 328 359 334 259 249 249 271 299 298 307 273 273 273 242 233 245 248 241 241 260 277 276 269 254 262 249
26 23 21 19 14 12 9 7 5 1 357 353 349 346 339 321 334 335 344 324 332 233 284 297 290 281 285 287 291 299 319 288 258 255 260 259 234 252 260 267 262 273 276 278 280 287 258
21 20 19 16 11 9 8 5 3 1 357 353 351 348 349 338 336 341 355 339 347 307 308 289 282 264 276 287 288 311 298 253 241 250 276 270 257 245 252 262 271 269 267 267 273 261 265
18 15 15 12 9 8 6 5 3 0 358 354 353 353 3 352 353 357 331 330 334 320 273 299 274 296 306 296 299 314 280 285 279 281 281 274 268 273 260 249 260 268 263 265 272 272 262
13 12 11 9 7 5 3 2 2 0 358 355 355 2 4 2 356 339 3 327 323 296 268 69 166 64 304 307 293 319 283 284 286 283 295 286 286 280 274 264 259 256 248 261 295 285 269
8 6 5 4 2 1 360 359 1 0 359 356 354 2 6 356 330 349 323 326 316 189 273 11 352 295 296 313 309 295 270 272 278 293 291 274 282 284 269 264 270 291 284 275 258 257 271
7 4 1 359 360 0 359 358 1 1 0 357 351 356 9 356 329 330 325 320 321 233 6 332 333 334 322 324 327 310 288 277 285 288 275 270 267 255 253 260 260 252 250 264 273 266 252
2 2 360 357 359 358 358 357 359 1 359 359 353 347 357 12 333 325 321 291 266 352 341 349 331 332 305 349 334 329 306 300 273 274 277 296 279 267 229 247 248 239 257 235 237 221 242
356 357 359 357 357 357 359 356 356 360 358 358 355 356 345 354 331 319 316 271 287 1 346 333 324 307 312 347 345 331 315 302 288 265 272 287 298 33 19 264 291 271 218 247 265 245 251
351 351 354 356 358 355 355 355 354 355 359 354 355 354 358 330 334 320 288 319 353 344 336 325 316 311 327 341 335 345 322 306 354 355 272 312 265 322 302 285 250 355 228 252 258 263 273
347 347 348 349 351 352 352 353 352 356 1 355 358 333 313 345 340 310 285 260 328 334 324 319 307 316 322 336 333 342 315 319 343 338 17 309 288 280 288 290 258 200 225 233 202 247 255
342 342 343 345 346 349 351 352 354 356 358 1 355 309 344 344 318 313 331 324 324 335 334 326 313 310 322 326 329 321 282 307 3 333 337 277 224 283 289 243 238 178 217 233 267 252 269
339 338 339 341 343 347 349 351 354 354 356 3 347 310 345 346 299 357 1 336 321 317 319 312 295 308 319 331 307 291 276 288 8 330 253 252 270 275 276 273 270 226 231 227 245 256 258
338 336 336 339 341 343 346 351 357 1 358 349 336 311 330 6 7 352 332 321 278 301 315 309 301 310 320 313 300 247 291 293 318 295 241 202 241 287 296 209 28 276 248 244 239 259 258
332 336 335 336 338 341 344 346 354 1 0 359 333 329 345 315 238 346 337 313 322 330 321 305 301 298 299 307 319 287 290 305 291 308 300 247 234 245 274 297 311 237 246 256 231 244 257
328 331 335 337 336 338 340 343 349 353 360 9 351 354 349 311 328 327 306 309 310 327 331 313 315 321 322 324 312 308 303 312 318 326 331 243 266 269 265 270 270 270 244 254 233 242 244
326 326 330 334 335 335 336 338 344 354 357 346 333 342 322 298 318 303 308 336 327 326 319 314 304 324 318 313 302 316 313 301 290 323 280 230 275 299 288 278 262 225 292 352 312 299 287
314 317 318 322 326 329 331 333 336 349 357 358 337 323 301 301 325 317 333 324 315 316 309 309 310 307 317 326 319 302 288 277 238 208 253 272 294 293 277 325 289 122 27 342 294 268 285
305 310 308 314 316 319 325 327 334 339 347 339 314 312 301 302 322 326 314 307 316 317 309 304 318 318 329 322 311 302 286 249 219 215 216 305 311 268 287 314 337 140 53 341 295 284 256
300 304 302 304 309 307 317 321 326 326 332 329 311 306 310 292 308 307 326 316 315 307 307 314 340 333 330 322 313 350 311 270 330 338 224 290 282 286 298 322 145 142 355 318 315 285 336
300 301 301 300 297 298 305 310 318 318 322 320 315 285 280 305 309 325 312 300 316 321 318 323 328 335 338 319 338 336 325 326 333 340 353 330 286 260 310 314 332 357 337 323 117 238 357
301 303 303 298 294 293 295 299 305 310 312 320 304 289 240 270 285 311 303 313 303 321 304 315 339 323 1 338 340 347 318 330 340 334 338 337 345 321 319 305 95 359 339 320 338 336 322
300 303 304 304 299 292 286 291 301 302 306 310 305 296 253 260 287 287 284 288 286 285 294 333 330 357 348 4 334 350 320 335 308 325 339 318 324 339 328 316 349 360 343 14 301 304 323
302 300 304 311 312 302 282 282 291 302 305 300 297 296 271 247 274 288 289 277 252 263 283 277 296 300 335 352 327 304 312 328 315 309 324 329 4 311 321 331 347 330 325 329 344 340 19
Wind_Speed_850mb
51 50 50 49 49 49 49 48 50 52 54 55 51 41 40 34 27 25 28 31 30 29 25 20 20 15 3 12 16 3 5 5 9 11 12 15 20 25 29 27 21 30 33 45 48 51 64
52 53 54 54 53 53 53 54 56 57 57 56 52 40 39 32 26 26 28 33 31 30 20 21 17 5 5 17 1 4 4 10 11 13 14 14 15 18 25 31 30 35 37 35 35 42 54
52 53 55 57 58 58 58 59 59 60 60 57 52 41 33 28 26 27 29 35 33 36 15 25 9 3 11 7 3 8 14 17 16 17 22 18 19 22 24 25 26 29 36 39 42 48 46
53 53 55 58 60 61 63 64 64 63 63 60 53 44 29 25 25 27 31 37 33 37 15 34 4 3 17 8 5 11 17 23 27 26 26 25 24 31 35 36 38 37 38 37 39 47 47
53 54 55 57 60 62 65 67 69 67 69 64 55 45 30 23 25 26 33 38 27 27 20 23 4 8 21 8 11 14 27 24 22 24 26 27 27 38 36 33 31 33 34 41 44 41 29
54 55 57 57 61 66 68 70 73 73 72 65 59 48 34 19 26 25 34 31 36 12 18 15 12 14 15 14 19 26 30 29 29 26 30 31 36 30 32 28 30 38 36 35 29 31 29
55 56 56 56 61 66 70 72 75 77 74 70 60 48 30 15 24 22 31 28 21 7 20 25 30 36 30 18 25 33 27 23 23 29 29 39 28 29 44 39 38 42 47 49 45 41 24
53 54 56 57 62 67 70 74 78 79 77 71 61 46 25 15 24 21 21 22 21 21 30 18 11 17 24 22 35 43 21 17 28 32 31 34 40 47 44 44 44 45 50 51 51 42 40
52 54 54 57 62 67 70 76 80 82 80 74 63 36 19 20 14 20 15 16 23 19 17 2 10 17 13 16 38 37 8 21 33 40 42 40 45 42 37 42 43 42 47 48 51 47 41
54 52 53 56 61 66 72 76 81 85 82 73 61 26 18 19 12 20 11 26 26 15 11 8 2 4 19 33 32 29 31 37 33 40 40 37 42 35 40 48 43 50 43 49 34 39 34
53 52 52 56 63 68 72 75 80 86 85 75 57 24 17 19 17 22 26 29 13 5 8 15 10 18 32 38 40 22 11 26 39 44 33 50 50 49 42 42 40 35 28 32 38 40 38
54 54 53 56 62 68 72 74 78 84 88 79 53 22 18 18 16 26 28 22 4 14 9 18 20 36 34 27 25 40 29 31 39 41 42 53 62 46 52 47 46 26 31 34 35 28 30
54 56 56 58 61 67 71 73 76 84 89 87 48 17 19 19 27 31 24 16 13 10 27 20 42 41 35 34 44 27 28 33 21 12 32 33 45 46 45 40 38 32 21 11 15 20 38
55 60 62 62 61 67 72 72 74 81 87 86 47 14 17 18 35 24 19 24 18 25 25 36 31 43 22 42 35 43 39 33 29 23 16 22 23 10 18 28 23 23 24 13 17 28 36
56 60 63 66 67 69 71 71 75 77 84 86 37 16 10 30 30 19 27 12 16 26 30 30 40 29 29 40 39 44 43 28 11 10 7 14 16 9 30 36 26 4 20 34 31 40 34
55 57 60 62 67 68 71 73 75 76 82 85 38 11 9 35 23 14 15 2 14 15 27 28 35 25 48 44 40 45 28 18 21 12 21 5 25 31 37 19 34 24 5 7 8 12 30
55 57 59 60 63 67 70 70 76 77 81 81 29 18 15 34 19 22 10 13 25 32 28 18 32 43 38 31 38 37 15 36 14 18 22 11 13 28 30 21 32 10 8 19 23 21 19
55 56 57 59 61 63 66 69 69 80 79 78 28 12 24 33 23 28 17 18 17 26 35 31 24 31 32 37 27 16 20 25 14 17 8 13 9 16 43 47 41 32 38 35 20 27 27
54 53 53 55 57 60 61 66 64 70 76 74 33 21 14 32 13 16 26 32 12 23 27 28 27 32 37 35 16 21 38 37 52 12 6 4 8 13 22 5 20 7 22 40 34 31 34
54 51 51 53 57 58 59 59 59 62 68 44 25 12 23 17 1 20 26 23 28 24 26 22 34 36 29 38 34 26 48 17 36 37 32 15 11 23 26 39 24 9 26 43 33 22 30
58 55 51 53 55 58 58 57 52 57 58 29 20 15 10 14 27 33 31 26 31 34 20 39 32 42 47 37 50 33 42 58 46 9 7 5 13 30 39 46 48 49 38 38 28 35 31
59 56 56 53 55 56 56 55 50 52 55 20 22 18 25 39 31 28 21 25 32 33 39 34 34 45 47 37 33 56 52 40 10 7 6 6 10 29 47 38 32 22 9 27 26 28 26
57 58 54 55 57 57 56 54 51 50 47 13 23 21 22 31 34 27 23 30 41 40 22 42 44 43 46 48 68 78 63 57 12 5 4 7 8 10 15 21 19 6 10 24 25 19 6
61 61 58 54 57 54 55 51 49 46 39 22 20 18 25 21 27 30 34 36 39 41 41 47 37 38 50 73 73 65 15 19 12 16 17 13 21 11 19 34 5 15 21 26 20 30 16
66 65 59 56 55 50 50 49 47 43 42 33 23 11 14 15 41 30 39 39 41 40 35 37 39 48 44 54 32 21 8 10 12 6 19 18 11 10 11 26 2 18 22 17 9 13 17
60 60 59 56 54 52 51 48 46 44 47 40 29 15 11 20 16 39 36 35 28 27 25 38 36 44 34 20 19 13 9 25 11 19 17 31 19 12 14 16 9 19 45 60 1 6 48
59 58 57 57 54 50 44 48 48 46 46 43 31 22 17 19 30 29 32 29 30 26 19 41 50 29 27 23 13 16 14 22 13 18 21 20 16 17 19 8 9 34 50 68 9 17 54
51 51 51 51 50 48 44 46 49 54 45 42 33 30 21 18 54 39 33 42 38 33 21 33 26 16 11 15 10 14 10 11 12 23 7 9 14 12 14 10 10 61 32 18 27 59 40
45 45 46 46 44 45 48 47 51 51 46 41 39 28 18 30 47 63 51 46 52 41 35 16 26 26 11 6 6 8 16 6 18 8 9 4 9 11 10 9 22 43 27 56 37 30 31
Wind_Direction_850mb
44 41 38 34 33 30 25 20 15 11 7 5 5 7 4 5 10 12 5 356 351 344 345 346 340 336 322 240 65 298 39 31 346 300 282 288 279 272 265 271 272 266 271 273 269 262 269
44 41 39 36 32 28 23 18 14 10 7 5 4 1 1 4 7 5 2 355 350 350 357 348 345 333 346 255 111 223 248 262 286 275 274 283 290 316 294 274 274 277 285 283 277 278 263
42 39 37 34 30 26 21 16 10 7 5 2 2 358 356 356 358 359 356 352 343 345 355 353 332 189 273 352 202 278 275 275 274 269 272 266 276 284 294 284 268 277 269 270 257 252 252
38 36 33 30 26 23 19 14 9 3 2 358 356 354 344 344 346 349 348 346 342 342 301 347 270 198 279 212 281 301 303 285 270 261 260 264 271 274 271 278 277 266 263 267 263 239 237
35 31 28 24 22 19 14 12 8 3 358 355 352 349 335 334 334 337 342 342 338 344 357 326 67 234 277 238 267 296 309 287 290 259 258 260 262 268 270 256 260 244 254 257 268 231 217
30 26 22 22 20 16 11 9 6 2 357 354 349 347 336 321 334 327 338 338 330 328 359 334 259 249 249 271 299 298 307 273 273 273 242 233 245 248 241 241 260 277 276 269 254 262 249
26 23 21 19 14 12 9 7 5 1 357 353 349 346 339 321 334 335 344 324 332 233 284 297 290 281 285 287 291 299 319 288 258 255 260 259 234 252 260 267 262 273 276 278 280 287 258
21 20 19 16 11 9 8 5 3 1 357 353 351 348 349 338 336 341 355 339 347 307 308 289 282 264 276 287 288 311 298 253 241 250 276 270 257 245 252 262 271 269 267 267 273 261 265
18 15 15 12 9 8 6 5 3 0 358 354 353 353 3 352 353 357 331 330 334 320 273 299 274 296 306 296 299 314 280 285 279 281 281 274 268 273 260 249 260 268 263 265 272 272 262
13 12 11 9 7 5 3 2 2 0 358 355 355 2 4 2 356 339 3 327 323 296 268 69 166 64 304 307 293 319 283 284 286 283 295 286 286 280 274 264 259 256 248 261 295 285 269
8 6 5 4 2 1 360 359 1 0 359 356 354 2 6 356 330 349 323 326 316 189 273 11 352 295 296 313 309 295 270 272 278 293 291 274 282 284 269 264 270 291 284 275 258 257 271
7 4 1 359 360 0 359 358 1 1 0 357 351 356 9 356 329 330 325 320 321 233 6 332 333 334 322 324 327 310 288 277 285 288 275 270 267 255 253 260 260 252 250 264 273 266 252
2 2 360 357 359 358 358 357 359 1 359 359 353 347 357 12 333 325 321 291 266 352 341 349 331 332 305 349 334 329 306 300 273 274 277 296 279 267 229 247 248 239 257 235 237 221 242
356 357 359 357 357 357 359 356 356 360 358 358 355 356 345 354 331 319 316 271 287 1 346 333 324 307 312 347 345 331 315 302 288 265 272 287 298 33 19 264 291 271 218 247 265 245 251
351 351 354 356 358 355 355 355 354 355 359 354 355 354 358 330 334 320 288 319 353 344 336 325 316 311 327 341 335 345 322 306 354 355 272 312 265 322 302 285 250 355 228 252 258 263 273
347 347 348 349 351 352 352 353 352 356 1 355 358 333 313 345 340 310 285 260 328 334 324 319 307 316 322 336 333 342 315 319 343 338 17 309 288 280 288 290 258 200 225 233 202 247 255
342 342 343 345 346 349 351 352 354 356 358 1 355 309 344 344 318 313 331 324 324 335 334 326 313 310 322 326 329 321 282 307 3 333 337 277 224 283 289 243 238 178 217 233 267 252 269
339 338 339 341 343 347 349 351 354 354 356 3 347 310 345 346 299 357 1 336 321 317 319 312 295 308 319 331 307 291 276 288 8 330 253 252 270 275 276 273 270 226 231 227 245 256 258
338 336 336 339 341 343 346 351 357 1 358 349 336 311 330 6 7 352 332 321 278 301 315 309 301 310 320 313 300 247 291 293 318 295 241 202 241 287 296 209 28 276 248 244 239 259 258
332 336 335 336 338 341 344 346 354 1 0 359 333 329 345 315 238 346 337 313 322 330 321 305 301 298 299 307 319 287 290 305 291 308 300 247 234 245 274 297 311 237 246 256 231 244 257
328 331 335 337 336 338 340 343 349 353 360 9 351 354 349 311 328 327 306 309 310 327 331 313 315 321 322 324 312 308 303 312 318 326 331 243 266 269 265 270 270 270 244 254 233 242 244
326 326 330 334 335 335 336 338 344 354 357 346 333 342 322 298 318 303 308 336 327 326 319 314 304 324 318 313 302 316 313 301 290 323 280 230 275 299 288 278 262 225 292 352 312 299 287
314 317 318 322 326 329 331 333 336 349 357 358 337 323 301 301 325 317 333 324 315 316 309 309 310 307 317 326 319 302 288 277 238 208 253 272 294 293 277 325 289 122 27 342 294 268 285
305 310 308 314 316 319 325 327 334 339 347 339 314 312 301 302 322 326 314 307 316 317 309 304 318 318 329 322 311 302 286 249 219 215 216 305 311 268 287 314 337 140 53 341 295 284 256
300 304 302 304 309 307 317 321 326 326 332 329 311 306 310 292 308 307 326 316 315 307 307 314 340 333 330 322 313 350 311 270 330 338 224 290 282 286 298 322 145 142 355 318 315 285 336
300 301 301 300 297 298 305 310 318 318 322 320 315 285 280 305 309 325 312 300 316 321 318 323 328 335 338 319 338 336 325 326 333 340 353 330 286 260 310 314 332 357 337 323 117 238 357
301 303 303 298 294 293 295 299 305 310 312 320 304 289 240 270 285 311 303 313 303 321 304 315 339 323 1 338 340 347 318 330 340 334 338 337 345 321 319 305 95 359 339 320 338 336 322
300 303 304 304 299 292 286 291 301 302 306 310 305 296 253 260 287 287 284 288 286 285 294 333 330 357 348 4 334 350 320 335 308 325 339 318 324 339 328 316 349 360 343 14 301 304 323
302 300 304 311 312 302 282 282 291 302 305 300 297 296 271 247 274 288 289 277 252 263 283 277 296 300 335 352 327 304 312 328 315 309 324 329 4 311 321 331 347 330 325 329 344 340 19